DAL691 KDTW-KLAX

Flight info

Callsign DAL691
Flight time 4h 20m
Altitude 32000
Route KAYLN3 SMUUV OBK DSM OVR LNK J146 GLD PUB PGS DNERO ANJLL4
Aircraft A321/M-SDE3FGHIRWY/LB1

Departure

Time 2026-04-20 00:56
Airport Detroit Metropolitan Wayne County Airport (KDTW)

Arrival

Time 2026-04-20 05:17
Airport Los Angeles International Airport (KLAX)
Time Latitude Longitude Altitude Speed Heading
2026-04-20 00:41 42.21324 -83.35519 646 ft 0 kts 119°
2026-04-20 00:44 42.21330 -83.35534 646 ft 4 kts 119°
2026-04-20 00:44 42.21338 -83.35554 648 ft 4 kts 114°
2026-04-20 00:45 42.21346 -83.35587 647 ft 4 kts 90°
2026-04-20 00:45 42.21341 -83.35619 647 ft 4 kts 48°
2026-04-20 00:45 42.21332 -83.35630 649 ft 0 kts 28°
2026-04-20 00:50 42.21336 -83.35626 647 ft 2 kts 28°
2026-04-20 00:50 42.21365 -83.35605 646 ft 6 kts 28°
2026-04-20 00:51 42.21394 -83.35584 646 ft 4 kts 28°
2026-04-20 00:51 42.21420 -83.35565 646 ft 7 kts 28°
2026-04-20 00:51 42.21476 -83.35523 647 ft 9 kts 28°
2026-04-20 00:51 42.21527 -83.35484 646 ft 8 kts 35°
2026-04-20 00:52 42.21547 -83.35428 646 ft 7 kts 83°
2026-04-20 00:52 42.21549 -83.35358 646 ft 8 kts 89°
2026-04-20 00:52 42.21550 -83.35274 646 ft 10 kts 89°
2026-04-20 00:52 42.21551 -83.35176 646 ft 11 kts 89°
2026-04-20 00:53 42.21517 -83.35102 646 ft 10 kts 148°
2026-04-20 00:53 42.21434 -83.35034 646 ft 18 kts 149°
2026-04-20 00:53 42.21347 -83.34962 649 ft 13 kts 148°
2026-04-20 00:53 42.21262 -83.34939 645 ft 12 kts 202°
2026-04-20 00:54 42.21192 -83.34992 645 ft 11 kts 208°
2026-04-20 00:54 42.21133 -83.35034 645 ft 9 kts 208°
2026-04-20 00:54 42.21073 -83.35079 646 ft 13 kts 209°
2026-04-20 00:54 42.20984 -83.35146 646 ft 15 kts 208°
2026-04-20 00:55 42.20900 -83.35207 646 ft 13 kts 208°
2026-04-20 00:55 42.20837 -83.35200 645 ft 9 kts 132°
2026-04-20 00:55 42.20806 -83.35128 644 ft 9 kts 112°
2026-04-20 00:55 42.20819 -83.35089 646 ft 3 kts 39°
2026-04-20 00:56 42.20957 -83.34988 645 ft 59 kts 27°
2026-04-20 00:56 42.21517 -83.34582 648 ft 124 kts 29°
2026-04-20 00:56 42.22426 -83.33913 671 ft 171 kts 30°
2026-04-20 00:56 42.23455 -83.33137 1389 ft 165 kts 24°
2026-04-20 00:57 42.24519 -83.32685 2202 ft 158 kts
2026-04-20 00:57 42.25608 -83.32903 2548 ft 167 kts 338°
2026-04-20 00:57 42.26762 -83.33474 2694 ft 185 kts 340°
2026-04-20 00:57 42.28037 -83.34054 2858 ft 203 kts 340°
2026-04-20 00:58 42.29461 -83.34693 3026 ft 227 kts 340°
2026-04-20 00:58 42.31011 -83.35388 3659 ft 235 kts 340°
2026-04-20 00:58 42.32569 -83.36088 4406 ft 238 kts 341°
2026-04-20 00:58 42.34130 -83.36787 5157 ft 240 kts 340°
2026-04-20 00:59 42.35719 -83.37495 5925 ft 242 kts 340°
2026-04-20 00:59 42.37325 -83.38213 6687 ft 244 kts 339°
2026-04-20 00:59 42.38851 -83.39205 7386 ft 244 kts 323°
2026-04-20 00:59 42.40113 -83.40742 8083 ft 245 kts 308°
2026-04-20 01:00 42.41162 -83.42567 8784 ft 247 kts 307°
2026-04-20 01:00 42.42219 -83.44411 9508 ft 249 kts 307°
2026-04-20 01:00 42.43291 -83.46264 10189 ft 252 kts 307°
2026-04-20 01:00 42.44398 -83.48198 10463 ft 270 kts 304°
2026-04-20 01:01 42.45379 -83.50447 10762 ft 283 kts 295°
2026-04-20 01:01 42.46074 -83.52967 11342 ft 288 kts 286°
2026-04-20 01:01 42.46453 -83.55649 11986 ft 292 kts 277°
2026-04-20 01:01 42.46486 -83.58416 12652 ft 296 kts 269°
2026-04-20 01:02 42.46362 -83.61215 13317 ft 299 kts 269°
2026-04-20 01:02 42.46236 -83.64037 13975 ft 301 kts 269°
2026-04-20 01:02 42.46109 -83.66885 14559 ft 304 kts 269°
2026-04-20 01:02 42.45984 -83.69750 15146 ft 306 kts 269°
2026-04-20 01:03 42.45860 -83.72642 15720 ft 309 kts 269°
2026-04-20 01:03 42.45734 -83.75552 16300 ft 311 kts 269°
2026-04-20 01:03 42.45607 -83.78493 16882 ft 314 kts 269°
2026-04-20 01:03 42.45478 -83.81449 17470 ft 316 kts 269°
2026-04-20 01:04 42.45349 -83.84433 18046 ft 319 kts 269°
2026-04-20 01:04 42.45217 -83.87446 18609 ft 321 kts 269°
2026-04-20 01:04 42.45085 -83.90430 19067 ft 323 kts 269°
2026-04-20 01:04 42.44949 -83.93465 19614 ft 323 kts 269°
2026-04-20 01:05 42.44811 -83.96510 20116 ft 324 kts 269°
2026-04-20 01:05 42.44672 -83.99563 20610 ft 326 kts 269°
2026-04-20 01:05 42.44533 -84.02640 21098 ft 327 kts 270°
2026-04-20 01:05 42.44393 -84.05721 21573 ft 329 kts 270°
2026-04-20 01:06 42.44252 -84.08822 22009 ft 332 kts 270°
2026-04-20 01:06 42.44107 -84.11994 22142 ft 343 kts 270°
2026-04-20 01:06 42.43958 -84.15257 22287 ft 352 kts 270°
2026-04-20 01:06 42.43804 -84.18602 22429 ft 361 kts 270°
2026-04-20 01:07 42.43645 -84.22036 22575 ft 370 kts 270°
2026-04-20 01:07 42.43478 -84.25554 22720 ft 378 kts 269°
2026-04-20 01:07 42.43305 -84.29134 22857 ft 386 kts 270°
2026-04-20 01:07 42.43143 -84.32791 23062 ft 390 kts 272°
2026-04-20 01:08 42.43211 -84.36457 23393 ft 391 kts 275°
2026-04-20 01:08 42.43312 -84.40147 23748 ft 393 kts 275°
2026-04-20 01:08 42.43408 -84.43853 24044 ft 394 kts 275°
2026-04-20 01:08 42.43502 -84.47528 24321 ft 396 kts 275°
2026-04-20 01:09 42.43599 -84.51310 24597 ft 398 kts 275°
2026-04-20 01:09 42.43692 -84.55063 24877 ft 400 kts 275°
2026-04-20 01:09 42.43785 -84.58792 25148 ft 402 kts 275°
2026-04-20 01:09 42.43880 -84.62590 25414 ft 404 kts 275°
2026-04-20 01:10 42.43977 -84.66394 25715 ft 405 kts 275°
2026-04-20 01:10 42.44165 -84.73976 26494 ft 401 kts 275°
2026-04-20 01:10 42.44253 -84.77741 26830 ft 401 kts 275°
2026-04-20 01:11 42.44342 -84.81514 27175 ft 400 kts 275°
2026-04-20 01:11 42.44430 -84.85278 27513 ft 400 kts 275°
2026-04-20 01:11 42.44514 -84.89042 27842 ft 400 kts 275°
2026-04-20 01:11 42.44595 -84.92815 28170 ft 400 kts 275°
2026-04-20 01:12 42.44676 -84.96569 28491 ft 399 kts 275°
2026-04-20 01:12 42.44759 -85.00326 28811 ft 399 kts 275°
2026-04-20 01:12 42.44843 -85.04090 29116 ft 399 kts 275°
2026-04-20 01:12 42.44924 -85.07839 29459 ft 398 kts 275°
2026-04-20 01:13 42.45004 -85.11582 29793 ft 397 kts 275°
2026-04-20 01:13 42.45078 -85.15317 30101 ft 396 kts 275°
2026-04-20 01:13 42.45150 -85.19043 30368 ft 396 kts 275°
2026-04-20 01:13 42.45222 -85.22777 30580 ft 397 kts 275°
2026-04-20 01:14 42.45295 -85.26507 30781 ft 397 kts 275°
2026-04-20 01:14 42.45366 -85.30262 30975 ft 398 kts 275°
2026-04-20 01:14 42.45437 -85.34012 31189 ft 398 kts 275°
2026-04-20 01:14 42.45507 -85.37760 31387 ft 399 kts 275°
2026-04-20 01:15 42.45578 -85.41517 31585 ft 400 kts 275°
2026-04-20 01:15 42.45647 -85.45275 31786 ft 399 kts 275°
2026-04-20 01:15 42.45711 -85.49034 32025 ft 399 kts 275°
2026-04-20 01:15 42.45774 -85.52793 32190 ft 400 kts 275°
2026-04-20 01:16 42.45893 -85.60270 32235 ft 399 kts 275°
2026-04-20 01:16 42.46014 -85.67835 32236 ft 399 kts 275°
2026-04-20 01:17 42.46132 -85.75298 32242 ft 399 kts 275°
2026-04-20 01:17 42.46246 -85.82858 32244 ft 399 kts 275°
2026-04-20 01:18 42.46350 -85.90331 32251 ft 399 kts 275°
2026-04-20 01:18 42.46444 -85.97853 32252 ft 399 kts 275°
2026-04-20 01:19 42.46538 -86.05378 32252 ft 399 kts 275°
2026-04-20 01:19 42.46555 -86.12902 32254 ft 402 kts 269°
2026-04-20 01:20 42.45664 -86.20427 32244 ft 405 kts 265°
2026-04-20 01:20 42.44705 -86.27930 32262 ft 404 kts 265°
2026-04-20 01:21 42.43752 -86.35420 32263 ft 403 kts 265°
2026-04-20 01:21 42.42814 -86.42766 32264 ft 403 kts 265°
2026-04-20 01:22 42.41852 -86.50243 32274 ft 403 kts 265°
2026-04-20 01:22 42.40884 -86.57719 32255 ft 403 kts 266°
2026-04-20 01:23 42.39909 -86.65185 32273 ft 403 kts 266°
2026-04-20 01:23 42.38928 -86.72642 32279 ft 402 kts 266°
2026-04-20 01:24 42.37946 -86.80091 32283 ft 402 kts 266°
2026-04-20 01:24 42.36962 -86.87537 32278 ft 402 kts 265°
2026-04-20 01:25 42.35975 -86.94985 32219 ft 402 kts 266°
2026-04-20 01:25 42.34982 -87.02406 32256 ft 401 kts 266°
2026-04-20 01:26 42.33981 -87.09814 32273 ft 400 kts 266°
2026-04-20 01:26 42.32984 -87.17170 32277 ft 400 kts 266°
2026-04-20 01:27 42.31980 -87.24564 32289 ft 400 kts 266°
2026-04-20 01:27 42.30975 -87.31962 32282 ft 400 kts 266°
2026-04-20 01:28 42.29962 -87.39365 32262 ft 401 kts 266°
2026-04-20 01:28 42.28941 -87.46760 32254 ft 401 kts 266°
2026-04-20 01:29 42.27917 -87.54169 32264 ft 401 kts 266°
2026-04-20 01:29 42.26879 -87.61573 32260 ft 402 kts 266°
2026-04-20 01:30 42.25840 -87.68974 32258 ft 402 kts 266°
2026-04-20 01:30 42.24975 -87.75140 32223 ft 401 kts 267°
2026-04-20 01:31 42.23937 -87.82544 32235 ft 402 kts 267°
2026-04-20 01:31 42.22881 -87.89949 32243 ft 402 kts 266°
2026-04-20 01:32 42.21840 -87.97351 32251 ft 401 kts 268°
2026-04-20 01:32 42.20984 -88.04763 32256 ft 399 kts 269°
2026-04-20 01:33 42.20209 -88.12183 32237 ft 399 kts 269°
2026-04-20 01:33 42.19399 -88.19593 32266 ft 398 kts 269°
2026-04-20 01:34 42.18558 -88.26967 32267 ft 398 kts 269°
2026-04-20 01:34 42.17708 -88.34334 32262 ft 397 kts 269°
2026-04-20 01:35 42.16869 -88.41632 32275 ft 396 kts 269°
2026-04-20 01:35 42.16020 -88.48958 32241 ft 395 kts 269°
2026-04-20 01:36 42.15170 -88.56258 32269 ft 394 kts 269°
2026-04-20 01:36 42.14316 -88.63546 32277 ft 394 kts 269°
2026-04-20 01:37 42.13460 -88.70828 32279 ft 393 kts 269°
2026-04-20 01:37 42.12600 -88.78101 32284 ft 393 kts 269°
2026-04-20 01:38 42.11730 -88.85371 32288 ft 393 kts 269°
2026-04-20 01:38 42.10856 -88.92628 32260 ft 393 kts 269°
2026-04-20 01:39 42.09978 -88.99891 32271 ft 393 kts 269°
2026-04-20 01:39 42.09096 -89.07148 32279 ft 393 kts 269°
2026-04-20 01:40 42.08217 -89.14406 32284 ft 393 kts 269°
2026-04-20 01:40 42.07327 -89.21661 32285 ft 393 kts 269°
2026-04-20 01:41 42.06434 -89.28914 32261 ft 393 kts 269°
2026-04-20 01:41 42.05533 -89.36167 32274 ft 393 kts 269°
2026-04-20 01:42 42.04624 -89.43413 32284 ft 393 kts 269°
2026-04-20 01:42 42.03722 -89.50622 32287 ft 393 kts 269°
2026-04-20 01:43 42.02811 -89.57878 32294 ft 393 kts 269°
2026-04-20 01:43 42.01888 -89.65130 32300 ft 393 kts 269°
2026-04-20 01:44 42.00967 -89.72381 32303 ft 393 kts 269°
2026-04-20 01:44 42.00046 -89.79640 32377 ft 395 kts 269°
2026-04-20 01:45 41.99582 -89.83279 32618 ft 395 kts 269°
2026-04-20 01:45 41.99115 -89.86919 32881 ft 395 kts 269°
2026-04-20 01:45 41.98642 -89.90564 33057 ft 395 kts 269°
2026-04-20 01:45 41.98169 -89.94186 33361 ft 393 kts 269°
2026-04-20 01:46 41.97698 -89.97799 33636 ft 392 kts 269°
2026-04-20 01:46 41.97228 -90.01410 33838 ft 392 kts 268°
2026-04-20 01:46 41.96759 -90.05023 34108 ft 391 kts 268°
2026-04-20 01:46 41.96292 -90.08622 34266 ft 392 kts 268°
2026-04-20 01:47 41.95352 -90.15831 34294 ft 391 kts 268°
2026-04-20 01:47 41.94404 -90.23019 34295 ft 391 kts 268°
2026-04-20 01:48 41.93568 -90.29292 34294 ft 391 kts 268°
2026-04-20 01:48 41.92635 -90.36290 34294 ft 391 kts 268°
2026-04-20 01:49 41.91677 -90.43475 34271 ft 391 kts 268°
2026-04-20 01:49 41.90714 -90.50673 34289 ft 391 kts 268°
2026-04-20 01:50 41.89741 -90.57865 34299 ft 391 kts 268°
2026-04-20 01:50 41.88768 -90.65047 34304 ft 391 kts 268°
2026-04-20 01:51 41.87786 -90.72241 34307 ft 392 kts 268°
2026-04-20 01:51 41.86798 -90.79429 34276 ft 392 kts 268°
2026-04-20 01:52 41.85811 -90.86613 34306 ft 391 kts 268°
2026-04-20 01:52 41.84818 -90.93746 34317 ft 392 kts 268°
2026-04-20 01:53 41.83813 -91.00925 34312 ft 392 kts 268°
2026-04-20 01:53 41.82807 -91.08110 34325 ft 392 kts 268°
2026-04-20 01:54 41.81799 -91.15286 34285 ft 392 kts 268°
2026-04-20 01:54 41.80788 -91.22454 34298 ft 392 kts 268°
2026-04-20 01:55 41.79773 -91.29641 34309 ft 392 kts 267°
2026-04-20 01:55 41.78751 -91.36820 34313 ft 392 kts 267°
2026-04-20 01:56 41.77719 -91.44000 34322 ft 392 kts 267°
2026-04-20 01:56 41.76686 -91.51176 34321 ft 392 kts 267°
2026-04-20 01:57 41.75656 -91.58344 34304 ft 391 kts 267°
2026-04-20 01:57 41.74623 -91.65447 34320 ft 391 kts 267°
2026-04-20 01:58 41.73587 -91.72584 34308 ft 391 kts 267°
2026-04-20 01:58 41.72542 -91.79724 34316 ft 390 kts 267°
2026-04-20 01:59 41.71490 -91.86850 34315 ft 390 kts 267°
2026-04-20 01:59 41.70439 -91.93989 34291 ft 390 kts 267°
2026-04-20 02:00 41.69385 -92.01125 34291 ft 392 kts 267°
2026-04-20 02:00 41.68318 -92.08278 34313 ft 392 kts 267°
2026-04-20 02:01 41.67237 -92.15438 34320 ft 392 kts 266°
2026-04-20 02:01 41.66155 -92.22584 34322 ft 392 kts 267°
2026-04-20 02:02 41.65082 -92.29734 34281 ft 392 kts 266°
2026-04-20 02:02 41.64002 -92.36884 34289 ft 393 kts 266°
2026-04-20 02:03 41.62913 -92.44049 34296 ft 394 kts 266°
2026-04-20 02:03 41.61807 -92.51220 34303 ft 394 kts 266°
2026-04-20 02:04 41.60694 -92.58406 34309 ft 394 kts 266°
2026-04-20 02:04 41.59590 -92.65583 34313 ft 394 kts 266°
2026-04-20 02:05 41.58483 -92.72719 34283 ft 395 kts 266°
2026-04-20 02:05 41.57359 -92.79923 34289 ft 396 kts 266°
2026-04-20 02:06 41.56231 -92.87135 34292 ft 397 kts 266°
2026-04-20 02:06 41.55099 -92.94343 34298 ft 397 kts 266°
2026-04-20 02:07 41.53960 -93.01569 34301 ft 397 kts 266°
2026-04-20 02:07 41.52819 -93.08784 34273 ft 398 kts 266°
2026-04-20 02:08 41.51671 -93.16022 34267 ft 399 kts 265°
2026-04-20 02:08 41.50513 -93.23268 34289 ft 400 kts 265°
2026-04-20 02:09 41.49341 -93.30525 34298 ft 400 kts 265°
2026-04-20 02:09 41.48171 -93.37779 34297 ft 400 kts 265°
2026-04-20 02:10 41.46995 -93.45044 34304 ft 401 kts 265°
2026-04-20 02:10 41.45816 -93.52300 34307 ft 400 kts 265°
2026-04-20 02:11 41.44631 -93.59555 34305 ft 401 kts 265°
2026-04-20 02:11 41.43456 -93.66811 34310 ft 400 kts 266°
2026-04-20 02:12 41.42542 -93.74091 34309 ft 397 kts 268°
2026-04-20 02:12 41.41744 -93.81368 34279 ft 397 kts 268°
2026-04-20 02:13 41.40904 -93.88664 34280 ft 398 kts 268°
2026-04-20 02:13 41.40016 -93.95911 34291 ft 399 kts 267°
2026-04-20 02:14 41.39104 -94.03204 34296 ft 400 kts 267°
2026-04-20 02:14 41.38189 -94.10505 34298 ft 400 kts 267°
2026-04-20 02:15 41.37279 -94.17806 34300 ft 400 kts 267°
2026-04-20 02:15 41.36524 -94.23888 34271 ft 400 kts 267°
2026-04-20 02:16 41.35604 -94.31204 34279 ft 401 kts 267°
2026-04-20 02:16 41.34683 -94.38519 34281 ft 401 kts 267°
2026-04-20 02:17 41.33757 -94.45844 34285 ft 402 kts 267°
2026-04-20 02:17 41.32820 -94.53174 34299 ft 402 kts 267°
2026-04-20 02:18 41.31875 -94.60501 34265 ft 402 kts 267°
2026-04-20 02:18 41.30924 -94.67846 34271 ft 403 kts 267°
2026-04-20 02:19 41.29971 -94.75193 34273 ft 403 kts 267°
2026-04-20 02:19 41.29011 -94.82545 34280 ft 404 kts 267°
2026-04-20 02:20 41.28053 -94.89901 34280 ft 404 kts 267°
2026-04-20 02:20 41.27089 -94.97212 34254 ft 404 kts 267°
2026-04-20 02:21 41.25628 -95.08247 34268 ft 405 kts 267°
2026-04-20 02:22 41.24641 -95.15620 34283 ft 405 kts 266°
2026-04-20 02:22 41.23645 -95.22994 34284 ft 405 kts 266°
2026-04-20 02:23 41.22652 -95.30370 34283 ft 405 kts 266°
2026-04-20 02:23 41.21665 -95.37737 34256 ft 405 kts 267°
2026-04-20 02:24 41.20667 -95.45104 34268 ft 405 kts 266°
2026-04-20 02:24 41.19655 -95.52480 34277 ft 406 kts 266°
2026-04-20 02:25 41.18632 -95.59843 34285 ft 406 kts 266°
2026-04-20 02:25 41.17606 -95.67206 34279 ft 406 kts 266°
2026-04-20 02:26 41.16512 -95.74560 34252 ft 410 kts 261°
2026-04-20 02:26 41.14802 -95.81817 34249 ft 412 kts 260°
2026-04-20 02:27 41.13078 -95.89025 34249 ft 412 kts 260°
2026-04-20 02:27 41.11337 -95.96283 34254 ft 413 kts 260°
2026-04-20 02:28 41.09600 -96.03529 34266 ft 413 kts 260°
2026-04-20 02:28 41.07856 -96.10783 34256 ft 413 kts 260°
2026-04-20 02:29 41.06111 -96.18035 34266 ft 413 kts 260°
2026-04-20 02:29 41.04364 -96.25277 34272 ft 413 kts 260°
2026-04-20 02:30 41.02601 -96.32526 34278 ft 413 kts 260°
2026-04-20 02:30 41.00837 -96.39775 34279 ft 413 kts 260°
2026-04-20 02:31 40.99069 -96.47020 34235 ft 414 kts 260°
2026-04-20 02:31 40.97295 -96.54262 34247 ft 414 kts 260°
2026-04-20 02:32 40.95515 -96.61504 34259 ft 414 kts 260°
2026-04-20 02:32 40.93725 -96.68749 34245 ft 414 kts 260°
2026-04-20 02:33 40.91909 -96.75972 34281 ft 414 kts 259°
2026-04-20 02:33 40.89923 -96.83123 34295 ft 414 kts 257°
2026-04-20 02:34 40.87858 -96.90241 34260 ft 414 kts 257°
2026-04-20 02:34 40.85817 -96.97331 34268 ft 413 kts 258°
2026-04-20 02:35 40.83799 -97.04427 34266 ft 413 kts 258°
2026-04-20 02:35 40.81782 -97.11484 34268 ft 413 kts 258°
2026-04-20 02:36 40.79743 -97.18577 34268 ft 413 kts 258°
2026-04-20 02:36 40.77709 -97.25665 34264 ft 413 kts 258°
2026-04-20 02:37 40.75666 -97.32751 34254 ft 413 kts 257°
2026-04-20 02:37 40.73616 -97.39842 34254 ft 414 kts 257°
2026-04-20 02:38 40.71563 -97.46928 34255 ft 414 kts 257°
2026-04-20 02:38 40.69499 -97.54014 34255 ft 414 kts 257°
2026-04-20 02:39 40.67431 -97.61091 34220 ft 414 kts 257°
2026-04-20 02:39 40.65368 -97.68147 34240 ft 413 kts 257°
2026-04-20 02:40 40.63306 -97.75182 34264 ft 410 kts 258°
2026-04-20 02:40 40.61255 -97.82168 34266 ft 408 kts 258°
2026-04-20 02:41 40.59205 -97.89121 34267 ft 407 kts 258°
2026-04-20 02:41 40.57159 -97.96049 34257 ft 406 kts 258°
2026-04-20 02:42 40.55107 -98.02970 34226 ft 405 kts 258°
2026-04-20 02:42 40.53079 -98.09812 34233 ft 404 kts 258°
2026-04-20 02:43 40.51037 -98.16681 34235 ft 403 kts 258°
2026-04-20 02:43 40.48991 -98.23529 34232 ft 403 kts 258°
2026-04-20 02:44 40.46941 -98.30384 34231 ft 402 kts 258°
2026-04-20 02:44 40.44893 -98.37218 34192 ft 402 kts 257°
2026-04-20 02:45 40.42837 -98.44057 34208 ft 403 kts 257°
2026-04-20 02:45 40.40765 -98.50885 34203 ft 403 kts 257°
2026-04-20 02:46 40.38696 -98.57725 34207 ft 403 kts 257°
2026-04-20 02:46 40.36633 -98.64558 34203 ft 403 kts 257°
2026-04-20 02:47 40.34555 -98.71389 34205 ft 403 kts 257°
2026-04-20 02:47 40.32483 -98.78180 34197 ft 405 kts 257°
2026-04-20 02:48 40.30385 -98.85040 34197 ft 405 kts 257°
2026-04-20 02:48 40.28283 -98.91892 34205 ft 405 kts 257°
2026-04-20 02:49 40.26185 -98.98732 34188 ft 405 kts 257°
2026-04-20 02:49 40.24083 -99.05574 34181 ft 405 kts 257°
2026-04-20 02:50 40.21974 -99.12408 34153 ft 405 kts 256°
2026-04-20 02:50 40.19856 -99.19258 34159 ft 406 kts 256°
2026-04-20 02:51 40.17731 -99.26112 34164 ft 407 kts 256°
2026-04-20 02:51 40.15599 -99.32979 34167 ft 407 kts 256°
2026-04-20 02:52 40.13460 -99.39836 34165 ft 408 kts 256°
2026-04-20 02:52 40.11305 -99.46706 34130 ft 408 kts 256°
2026-04-20 02:53 40.09145 -99.53578 34142 ft 409 kts 256°
2026-04-20 02:53 40.06987 -99.60464 34126 ft 411 kts 256°
2026-04-20 02:54 40.04809 -99.67377 34131 ft 412 kts 256°
2026-04-20 02:54 40.02632 -99.74256 34131 ft 413 kts 256°
2026-04-20 02:55 40.00430 -99.81178 34134 ft 414 kts 255°
2026-04-20 02:55 39.98223 -99.88134 34119 ft 416 kts 255°
2026-04-20 02:56 39.96012 -99.95114 34127 ft 417 kts 255°
2026-04-20 02:56 39.93790 -100.02091 34133 ft 417 kts 255°
2026-04-20 02:57 39.91559 -100.09069 34140 ft 417 kts 255°
2026-04-20 02:57 39.89319 -100.16045 34140 ft 417 kts 255°
2026-04-20 02:58 39.87081 -100.23015 34123 ft 417 kts 255°
2026-04-20 02:58 39.84835 -100.29988 34126 ft 418 kts 255°
2026-04-20 02:59 39.82580 -100.36971 34127 ft 419 kts 255°
2026-04-20 02:59 39.80321 -100.43947 34121 ft 419 kts 255°
2026-04-20 03:00 39.78050 -100.50931 34126 ft 419 kts 255°
2026-04-20 03:00 39.75775 -100.57912 34075 ft 419 kts 253°
2026-04-20 03:01 39.73885 -100.63725 34126 ft 421 kts 253°
2026-04-20 03:01 39.71593 -100.70735 34132 ft 421 kts 253°
2026-04-20 03:02 39.69295 -100.77731 34128 ft 421 kts 253°
2026-04-20 03:02 39.66992 -100.84733 34160 ft 421 kts 253°
2026-04-20 03:03 39.64698 -100.91729 34161 ft 421 kts 253°
2026-04-20 03:03 39.62394 -100.98724 34143 ft 421 kts 253°
2026-04-20 03:04 39.60077 -101.05715 34144 ft 421 kts 253°
2026-04-20 03:04 39.57763 -101.12691 34142 ft 421 kts 253°
2026-04-20 03:05 39.55442 -101.19665 34138 ft 421 kts 253°
2026-04-20 03:05 39.53122 -101.26590 34101 ft 422 kts 253°
2026-04-20 03:06 39.50791 -101.33553 34068 ft 422 kts 252°
2026-04-20 03:06 39.48453 -101.40538 34074 ft 422 kts 252°
2026-04-20 03:07 39.46116 -101.47511 34052 ft 423 kts 252°
2026-04-20 03:07 39.43772 -101.54484 34068 ft 422 kts 252°
2026-04-20 03:08 39.41423 -101.61447 34075 ft 422 kts 252°
2026-04-20 03:08 39.39066 -101.68403 34043 ft 422 kts 252°
2026-04-20 03:09 39.36571 -101.75305 34107 ft 425 kts 249°
2026-04-20 03:09 39.33899 -101.82148 34111 ft 427 kts 249°
2026-04-20 03:10 39.31232 -101.88941 34104 ft 427 kts 249°
2026-04-20 03:10 39.28573 -101.95821 34099 ft 427 kts 249°
2026-04-20 03:11 39.25934 -102.02693 34084 ft 428 kts 249°
2026-04-20 03:11 39.23285 -102.09561 34083 ft 428 kts 249°
2026-04-20 03:12 39.20616 -102.16440 34079 ft 429 kts 249°
2026-04-20 03:12 39.17947 -102.23327 34144 ft 429 kts 249°
2026-04-20 03:13 39.15286 -102.30165 34147 ft 430 kts 249°
2026-04-20 03:13 39.12604 -102.37036 34126 ft 429 kts 249°
2026-04-20 03:14 39.09918 -102.43907 34119 ft 429 kts 249°
2026-04-20 03:14 39.07228 -102.50769 34116 ft 429 kts 249°
2026-04-20 03:15 39.04532 -102.57630 34114 ft 429 kts 249°
2026-04-20 03:15 39.01836 -102.64474 34112 ft 429 kts 249°
2026-04-20 03:16 38.99135 -102.71321 34110 ft 429 kts 249°
2026-04-20 03:16 38.96435 -102.78159 34090 ft 429 kts 249°
2026-04-20 03:17 38.93729 -102.84985 34094 ft 429 kts 249°
2026-04-20 03:17 38.91015 -102.91822 34102 ft 429 kts 249°
2026-04-20 03:18 38.88296 -102.98650 34101 ft 430 kts 249°
2026-04-20 03:18 38.85574 -103.05473 34103 ft 430 kts 249°
2026-04-20 03:19 38.82846 -103.12297 34090 ft 430 kts 249°
2026-04-20 03:19 38.80128 -103.19069 34074 ft 430 kts 249°
2026-04-20 03:20 38.77374 -103.25922 34083 ft 430 kts 249°
2026-04-20 03:20 38.74645 -103.32708 34091 ft 430 kts 249°
2026-04-20 03:21 38.71900 -103.39520 34098 ft 431 kts 249°
2026-04-20 03:21 38.69147 -103.46330 34094 ft 431 kts 248°
2026-04-20 03:22 38.66385 -103.53139 34072 ft 431 kts 248°
2026-04-20 03:22 38.63622 -103.59939 34079 ft 431 kts 248°
2026-04-20 03:23 38.60857 -103.66738 34067 ft 431 kts 248°
2026-04-20 03:23 38.58088 -103.73526 34062 ft 431 kts 248°
2026-04-20 03:24 38.55316 -103.80318 34043 ft 431 kts 248°
2026-04-20 03:24 38.52541 -103.87095 34016 ft 431 kts 247°
2026-04-20 03:25 38.49759 -103.93870 34009 ft 430 kts 247°
2026-04-20 03:25 38.46973 -104.00634 34029 ft 430 kts 247°
2026-04-20 03:26 38.44186 -104.07388 34008 ft 430 kts 247°
2026-04-20 03:26 38.41395 -104.14130 34029 ft 430 kts 247°
2026-04-20 03:27 38.38601 -104.20869 34046 ft 430 kts 247°
2026-04-20 03:27 38.35825 -104.27561 34044 ft 430 kts 246°
2026-04-20 03:28 38.33032 -104.34291 34072 ft 430 kts 246°
2026-04-20 03:28 38.29040 -104.44492 34084 ft 425 kts 256°
2026-04-20 03:29 38.27297 -104.51652 34089 ft 424 kts 256°
2026-04-20 03:29 38.25531 -104.58816 34098 ft 424 kts 256°
2026-04-20 03:30 38.23758 -104.65979 34078 ft 424 kts 256°
2026-04-20 03:30 38.21983 -104.73144 34068 ft 425 kts 256°
2026-04-20 03:31 38.20209 -104.80314 34058 ft 425 kts 256°
2026-04-20 03:31 38.18421 -104.87476 34044 ft 425 kts 256°
2026-04-20 03:32 38.16622 -104.94630 34048 ft 425 kts 256°
2026-04-20 03:32 38.14824 -105.01787 34025 ft 425 kts 255°
2026-04-20 03:33 38.13037 -105.08897 34067 ft 425 kts 255°
2026-04-20 03:33 38.11238 -105.16051 34074 ft 425 kts 255°
2026-04-20 03:34 38.09435 -105.23196 34119 ft 425 kts 255°
2026-04-20 03:34 38.07618 -105.30334 34122 ft 425 kts 255°
2026-04-20 03:35 38.05800 -105.37467 34149 ft 425 kts 255°
2026-04-20 03:35 38.03981 -105.44598 34148 ft 424 kts 255°
2026-04-20 03:36 38.02159 -105.51708 34141 ft 424 kts 255°
2026-04-20 03:36 38.00332 -105.58825 34142 ft 424 kts 254°
2026-04-20 03:37 37.98505 -105.65945 34142 ft 425 kts 254°
2026-04-20 03:37 37.96676 -105.73050 34147 ft 424 kts 254°
2026-04-20 03:38 37.94843 -105.80147 34142 ft 423 kts 254°
2026-04-20 03:38 37.93004 -105.87234 34140 ft 423 kts 253°
2026-04-20 03:39 37.91162 -105.94307 34132 ft 423 kts 253°
2026-04-20 03:39 37.89330 -106.01330 34159 ft 422 kts 253°
2026-04-20 03:40 37.87479 -106.08383 34197 ft 422 kts 253°
2026-04-20 03:40 37.85620 -106.15442 34223 ft 423 kts 253°
2026-04-20 03:41 37.83769 -106.22500 34261 ft 423 kts 253°
2026-04-20 03:41 37.81914 -106.29560 34284 ft 423 kts 253°
2026-04-20 03:42 37.80047 -106.36616 34287 ft 423 kts 253°
2026-04-20 03:42 37.78170 -106.43678 34280 ft 424 kts 253°
2026-04-20 03:43 37.76288 -106.50746 34271 ft 425 kts 252°
2026-04-20 03:43 37.74399 -106.57815 34259 ft 424 kts 252°
2026-04-20 03:44 37.72507 -106.64880 34256 ft 425 kts 252°
2026-04-20 03:44 37.70611 -106.71952 34244 ft 425 kts 252°
2026-04-20 03:45 37.68711 -106.79021 34239 ft 426 kts 252°
2026-04-20 03:45 37.66802 -106.86112 34235 ft 427 kts 252°
2026-04-20 03:46 37.64885 -106.93213 34225 ft 428 kts 252°
2026-04-20 03:46 37.62962 -107.00286 34232 ft 429 kts 252°
2026-04-20 03:47 37.61018 -107.07417 34239 ft 430 kts 251°
2026-04-20 03:47 37.59071 -107.14542 34242 ft 430 kts 251°
2026-04-20 03:48 37.57120 -107.21677 34242 ft 430 kts 251°
2026-04-20 03:48 37.55488 -107.27608 34226 ft 431 kts 251°
2026-04-20 03:49 37.53528 -107.34750 34219 ft 431 kts 251°
2026-04-20 03:49 37.51571 -107.41880 34218 ft 431 kts 251°
2026-04-20 03:50 37.49599 -107.49024 34210 ft 431 kts 251°
2026-04-20 03:50 37.47619 -107.56161 34212 ft 432 kts 251°
2026-04-20 03:51 37.45639 -107.63301 34201 ft 432 kts 251°
2026-04-20 03:51 37.43653 -107.70433 34203 ft 432 kts 250°
2026-04-20 03:52 37.41672 -107.77516 34187 ft 432 kts 250°
2026-04-20 03:52 37.39661 -107.84692 34185 ft 432 kts 250°
2026-04-20 03:53 37.37676 -107.91772 34172 ft 432 kts 250°
2026-04-20 03:53 37.35664 -107.98900 34156 ft 432 kts 250°
2026-04-20 03:54 37.33649 -108.06023 34147 ft 433 kts 250°
2026-04-20 03:54 37.31643 -108.13151 34146 ft 433 kts 250°
2026-04-20 03:55 37.29620 -108.20279 34139 ft 433 kts 250°
2026-04-20 03:55 37.27590 -108.27405 34158 ft 433 kts 250°
2026-04-20 03:56 37.25558 -108.34525 34141 ft 433 kts 250°
2026-04-20 03:56 37.23526 -108.41644 34139 ft 433 kts 250°
2026-04-20 03:57 37.21486 -108.48764 34126 ft 434 kts 250°
2026-04-20 03:57 37.19434 -108.55891 34124 ft 434 kts 250°
2026-04-20 03:58 37.17376 -108.63007 34101 ft 434 kts 250°
2026-04-20 03:58 37.15331 -108.70091 34101 ft 434 kts 250°
2026-04-20 03:59 37.13269 -108.77215 34061 ft 435 kts 249°
2026-04-20 03:59 37.11198 -108.84331 34067 ft 435 kts 249°
2026-04-20 04:00 37.09109 -108.91462 34061 ft 435 kts 249°
2026-04-20 04:00 37.07029 -108.98578 34059 ft 435 kts 249°
2026-04-20 04:01 37.04949 -109.05690 34057 ft 435 kts 249°
2026-04-20 04:01 37.02870 -109.12802 34059 ft 435 kts 249°
2026-04-20 04:02 37.00787 -109.19902 34056 ft 435 kts 248°
2026-04-20 04:02 36.98689 -109.27004 34045 ft 435 kts 248°
2026-04-20 04:03 36.96585 -109.34105 34048 ft 436 kts 248°
2026-04-20 04:03 36.94479 -109.41210 34043 ft 436 kts 248°
2026-04-20 04:04 36.92360 -109.48302 34059 ft 435 kts 248°
2026-04-20 04:04 36.90265 -109.55333 34051 ft 434 kts 248°
2026-04-20 04:05 36.88160 -109.62396 34048 ft 434 kts 248°
2026-04-20 04:05 36.86052 -109.69444 34044 ft 433 kts 248°
2026-04-20 04:06 36.83934 -109.76496 34041 ft 433 kts 248°
2026-04-20 04:06 36.81811 -109.83529 34040 ft 432 kts 248°
2026-04-20 04:07 36.79701 -109.90527 34050 ft 430 kts 248°
2026-04-20 04:07 36.77596 -109.97505 34049 ft 429 kts 248°
2026-04-20 04:08 36.75487 -110.04449 34049 ft 428 kts 248°
2026-04-20 04:08 36.73377 -110.11382 34043 ft 427 kts 248°
2026-04-20 04:09 36.71265 -110.18284 34056 ft 426 kts 248°
2026-04-20 04:09 36.69160 -110.25172 34051 ft 424 kts 248°
2026-04-20 04:10 36.68109 -110.28606 34192 ft 424 kts 248°
2026-04-20 04:10 36.67058 -110.32033 34471 ft 423 kts 248°
2026-04-20 04:10 36.66009 -110.35452 34728 ft 422 kts 248°
2026-04-20 04:10 36.64973 -110.38823 34965 ft 422 kts 248°
2026-04-20 04:11 36.63925 -110.42229 35205 ft 421 kts 248°
2026-04-20 04:11 36.62879 -110.45634 35445 ft 420 kts 248°
2026-04-20 04:11 36.61836 -110.49033 35676 ft 420 kts 248°
2026-04-20 04:11 36.60792 -110.52429 35875 ft 420 kts 248°
2026-04-20 04:12 36.59741 -110.55825 36010 ft 421 kts 248°
2026-04-20 04:12 36.58687 -110.59219 36013 ft 420 kts 248°
2026-04-20 04:12 36.56577 -110.65999 36005 ft 420 kts 248°
2026-04-20 04:13 36.54464 -110.72769 36001 ft 420 kts 248°
2026-04-20 04:13 36.52354 -110.79539 35990 ft 420 kts 248°
2026-04-20 04:14 36.50244 -110.86309 35995 ft 420 kts 248°
2026-04-20 04:14 36.48134 -110.93078 35991 ft 420 kts 248°
2026-04-20 04:15 36.46009 -110.99839 35979 ft 420 kts 248°
2026-04-20 04:15 36.43900 -111.06556 35974 ft 420 kts 248°
2026-04-20 04:16 36.41773 -111.13323 35981 ft 420 kts 248°
2026-04-20 04:16 36.39636 -111.20070 35989 ft 420 kts 247°
2026-04-20 04:17 36.37487 -111.26832 35998 ft 421 kts 247°
2026-04-20 04:17 36.35347 -111.33591 36000 ft 421 kts 247°
2026-04-20 04:18 36.33201 -111.40349 35986 ft 421 kts 247°
2026-04-20 04:18 36.31038 -111.47105 35990 ft 421 kts 247°
2026-04-20 04:19 36.28873 -111.53858 36004 ft 421 kts 247°
2026-04-20 04:19 36.26713 -111.60611 36007 ft 421 kts 247°
2026-04-20 04:20 36.24548 -111.67357 36003 ft 422 kts 247°
2026-04-20 04:20 36.22380 -111.74110 36006 ft 422 kts 247°
2026-04-20 04:21 36.20198 -111.80857 36027 ft 422 kts 247°
2026-04-20 04:21 36.18029 -111.87552 36057 ft 422 kts 246°
2026-04-20 04:22 36.15846 -111.94293 36116 ft 423 kts 247°
2026-04-20 04:22 36.13659 -112.01037 36140 ft 421 kts 247°
2026-04-20 04:23 36.11472 -112.07754 36168 ft 421 kts 247°
2026-04-20 04:23 36.09277 -112.14471 36202 ft 421 kts 246°
2026-04-20 04:24 36.07081 -112.21205 36199 ft 423 kts 246°
2026-04-20 04:24 36.04877 -112.27931 36175 ft 422 kts 246°
2026-04-20 04:25 36.02672 -112.34651 36151 ft 423 kts 246°
2026-04-20 04:25 36.00458 -112.41382 36117 ft 423 kts 246°
2026-04-20 04:26 35.98238 -112.48113 36074 ft 423 kts 246°
2026-04-20 04:26 35.96027 -112.54813 35987 ft 424 kts 246°
2026-04-20 04:27 35.93796 -112.61545 35978 ft 425 kts 246°
2026-04-20 04:27 35.91553 -112.68290 35982 ft 425 kts 246°
2026-04-20 04:28 35.89301 -112.75041 35977 ft 425 kts 246°
2026-04-20 04:28 35.87046 -112.81783 35981 ft 425 kts 246°
2026-04-20 04:29 35.84785 -112.88534 35972 ft 426 kts 246°
2026-04-20 04:29 35.82519 -112.95290 35973 ft 427 kts 246°
2026-04-20 04:30 35.80254 -113.02051 35964 ft 427 kts 246°
2026-04-20 04:30 35.77991 -113.08768 35968 ft 428 kts 246°
2026-04-20 04:31 35.75704 -113.15532 35956 ft 428 kts 246°
2026-04-20 04:31 35.73410 -113.22323 35954 ft 429 kts 246°
2026-04-20 04:32 35.71118 -113.29093 35940 ft 428 kts 246°
2026-04-20 04:32 35.68814 -113.35864 35938 ft 429 kts 246°
2026-04-20 04:33 35.66513 -113.42631 35924 ft 429 kts 246°
2026-04-20 04:33 35.64201 -113.49402 35923 ft 429 kts 245°
2026-04-20 04:34 35.61855 -113.56100 35919 ft 429 kts 243°
2026-04-20 04:34 35.59159 -113.62630 35910 ft 428 kts 240°
2026-04-20 04:35 35.56302 -113.69051 35909 ft 428 kts 240°
2026-04-20 04:35 35.53481 -113.75499 35929 ft 428 kts 240°
2026-04-20 04:36 35.49335 -113.85220 35957 ft 428 kts 241°
2026-04-20 04:37 35.46571 -113.91691 35970 ft 428 kts 241°
2026-04-20 04:37 35.44263 -113.97067 35982 ft 428 kts 241°
2026-04-20 04:38 35.41487 -114.03522 35990 ft 428 kts 240°
2026-04-20 04:38 35.38706 -114.09969 35990 ft 428 kts 241°
2026-04-20 04:39 35.35924 -114.16411 35973 ft 427 kts 241°
2026-04-20 04:39 35.33135 -114.22841 35951 ft 427 kts 241°
2026-04-20 04:40 35.30350 -114.29262 35923 ft 427 kts 241°
2026-04-20 04:40 35.27559 -114.35677 35894 ft 427 kts 240°
2026-04-20 04:41 35.24766 -114.42101 35883 ft 428 kts 240°
2026-04-20 04:41 35.21972 -114.48522 35868 ft 428 kts 240°
2026-04-20 04:42 35.19164 -114.54934 35864 ft 428 kts 240°
2026-04-20 04:42 35.16356 -114.61339 35864 ft 428 kts 240°
2026-04-20 04:43 35.13565 -114.67711 35885 ft 428 kts 240°
2026-04-20 04:43 35.10742 -114.74117 35884 ft 428 kts 240°
2026-04-20 04:44 35.07916 -114.80523 35890 ft 428 kts 240°
2026-04-20 04:44 35.05097 -114.86920 35877 ft 427 kts 240°
2026-04-20 04:45 35.02284 -114.93300 35876 ft 427 kts 240°
2026-04-20 04:45 34.99500 -114.99720 35880 ft 428 kts 241°
2026-04-20 04:46 34.96734 -115.06141 35898 ft 428 kts 242°
2026-04-20 04:46 34.93954 -115.12575 35894 ft 429 kts 242°
2026-04-20 04:47 34.91164 -115.19010 35911 ft 430 kts 242°
2026-04-20 04:47 34.88360 -115.25432 35913 ft 430 kts 242°
2026-04-20 04:48 34.85540 -115.31857 35907 ft 430 kts 242°
2026-04-20 04:48 34.82731 -115.38286 35902 ft 431 kts 242°
2026-04-20 04:49 34.79909 -115.44731 35903 ft 431 kts 242°
2026-04-20 04:49 34.77266 -115.51226 35904 ft 431 kts 246°
2026-04-20 04:50 34.74876 -115.57916 35904 ft 432 kts 247°
2026-04-20 04:50 34.72498 -115.64635 35911 ft 432 kts 247°
2026-04-20 04:51 34.70058 -115.71306 35911 ft 432 kts 246°
2026-04-20 04:51 34.67578 -115.77970 35914 ft 433 kts 246°
2026-04-20 04:52 34.65088 -115.84635 35905 ft 433 kts 246°
2026-04-20 04:52 34.62606 -115.91290 35913 ft 433 kts 246°
2026-04-20 04:53 34.60170 -115.97923 35913 ft 433 kts 247°
2026-04-20 04:53 34.57725 -116.04596 35922 ft 433 kts 247°
2026-04-20 04:54 34.55269 -116.11254 35919 ft 432 kts 247°
2026-04-20 04:54 34.52802 -116.17907 35915 ft 432 kts 247°
2026-04-20 04:55 34.50324 -116.24567 35804 ft 438 kts 247°
2026-04-20 04:55 34.49054 -116.27974 35153 ft 446 kts 248°
2026-04-20 04:55 34.47776 -116.31404 34412 ft 447 kts 248°
2026-04-20 04:55 34.46494 -116.34844 33523 ft 450 kts 248°
2026-04-20 04:56 34.45204 -116.38303 32610 ft 447 kts 248°
2026-04-20 04:56 34.43925 -116.41724 31719 ft 444 kts 248°
2026-04-20 04:56 34.42673 -116.45065 31232 ft 427 kts 248°
2026-04-20 04:56 34.41445 -116.48333 30678 ft 425 kts 248°
2026-04-20 04:57 34.40178 -116.51569 30097 ft 425 kts 246°
2026-04-20 04:57 34.38866 -116.54779 29461 ft 423 kts 246°
2026-04-20 04:57 34.37542 -116.57938 28918 ft 419 kts 245°
2026-04-20 04:57 34.36217 -116.61073 28354 ft 416 kts 245°
2026-04-20 04:58 34.34908 -116.64180 27810 ft 413 kts 245°
2026-04-20 04:58 34.33635 -116.67229 27269 ft 410 kts 245°
2026-04-20 04:58 34.32368 -116.70303 26733 ft 407 kts 245°
2026-04-20 04:58 34.31129 -116.73370 26193 ft 404 kts 245°
2026-04-20 04:59 34.29909 -116.76418 25684 ft 402 kts 245°
2026-04-20 04:59 34.28700 -116.79454 25159 ft 399 kts 245°
2026-04-20 04:59 34.27500 -116.82461 24664 ft 396 kts 245°
2026-04-20 04:59 34.26306 -116.85446 24175 ft 393 kts 244°
2026-04-20 05:00 34.25116 -116.88406 23711 ft 390 kts 244°
2026-04-20 05:00 34.23933 -116.91337 23204 ft 386 kts 244°
2026-04-20 05:00 34.22765 -116.94226 22746 ft 380 kts 243°
2026-04-20 05:00 34.21613 -116.97077 22312 ft 374 kts 244°
2026-04-20 05:01 34.20602 -117.00206 21844 ft 369 kts 251°
2026-04-20 05:01 34.19876 -117.02917 21437 ft 365 kts 251°
2026-04-20 05:01 34.19095 -117.05818 21008 ft 361 kts 251°
2026-04-20 05:01 34.18316 -117.08692 20570 ft 358 kts 250°
2026-04-20 05:02 34.17541 -117.11547 20130 ft 356 kts 250°
2026-04-20 05:02 34.16772 -117.14384 19694 ft 359 kts 250°
2026-04-20 05:02 34.15984 -117.17281 19228 ft 363 kts 250°
2026-04-20 05:02 34.15193 -117.20166 18832 ft 363 kts 250°
2026-04-20 05:03 34.14406 -117.23025 18345 ft 363 kts 249°
2026-04-20 05:03 34.13609 -117.25910 17856 ft 361 kts 249°
2026-04-20 05:03 34.12818 -117.28772 17397 ft 358 kts 249°
2026-04-20 05:03 34.12034 -117.31609 16944 ft 356 kts 249°
2026-04-20 05:04 34.11249 -117.34441 16481 ft 354 kts 249°
2026-04-20 05:04 34.10473 -117.37246 16030 ft 352 kts 249°
2026-04-20 05:04 34.09730 -117.40054 15672 ft 347 kts 250°
2026-04-20 05:04 34.09043 -117.42792 15271 ft 336 kts 251°
2026-04-20 05:05 34.08382 -117.45484 14703 ft 333 kts 251°
2026-04-20 05:05 34.07726 -117.48158 14305 ft 332 kts 251°
2026-04-20 05:05 34.07066 -117.50831 13862 ft 332 kts 250°
2026-04-20 05:05 34.06396 -117.53500 13314 ft 328 kts 250°
2026-04-20 05:06 34.05733 -117.56114 12815 ft 326 kts 250°
2026-04-20 05:06 34.05064 -117.58723 12326 ft 326 kts 250°
2026-04-20 05:06 34.04394 -117.61328 11847 ft 323 kts 250°
2026-04-20 05:06 34.03735 -117.63898 11357 ft 320 kts 250°
2026-04-20 05:07 34.03081 -117.66454 10874 ft 318 kts 250°
2026-04-20 05:07 34.02431 -117.68998 10398 ft 315 kts 251°
2026-04-20 05:07 34.02045 -117.71552 10069 ft 306 kts 261°
2026-04-20 05:07 34.01815 -117.74067 9835 ft 296 kts 261°
2026-04-20 05:08 34.01581 -117.76498 9693 ft 291 kts 260°
2026-04-20 05:08 34.01342 -117.78917 9460 ft 291 kts 260°
2026-04-20 05:08 34.01104 -117.81329 9114 ft 289 kts 260°
2026-04-20 05:08 34.00871 -117.83699 8769 ft 287 kts 260°
2026-04-20 05:09 34.00633 -117.86088 8411 ft 286 kts 260°
2026-04-20 05:09 34.00396 -117.88463 8062 ft 284 kts 260°
2026-04-20 05:09 34.00165 -117.90817 7711 ft 283 kts 260°
2026-04-20 05:09 33.99935 -117.93173 7360 ft 283 kts 260°
2026-04-20 05:10 33.99708 -117.95503 7001 ft 272 kts 260°
2026-04-20 05:10 33.99495 -117.97690 6693 ft 254 kts 260°
2026-04-20 05:10 33.99292 -117.99762 6383 ft 243 kts 260°
2026-04-20 05:10 33.99094 -118.01758 6071 ft 238 kts 260°
2026-04-20 05:11 33.98895 -118.03725 5769 ft 235 kts 260°
2026-04-20 05:11 33.98695 -118.05668 5546 ft 232 kts 260°
2026-04-20 05:11 33.98491 -118.07621 5327 ft 239 kts 260°
2026-04-20 05:11 33.98289 -118.09629 5025 ft 242 kts 261°
2026-04-20 05:12 33.98089 -118.11647 4711 ft 242 kts 261°
2026-04-20 05:12 33.97891 -118.13631 4399 ft 233 kts 261°
2026-04-20 05:12 33.97700 -118.15553 4122 ft 229 kts 261°
2026-04-20 05:12 33.97510 -118.17441 3823 ft 226 kts 262°
2026-04-20 05:13 33.97322 -118.19317 3532 ft 225 kts 261°
2026-04-20 05:13 33.97135 -118.21182 3228 ft 221 kts 261°
2026-04-20 05:13 33.96956 -118.22965 2949 ft 208 kts 261°
2026-04-20 05:13 33.96786 -118.24659 2681 ft 199 kts 262°
2026-04-20 05:14 33.96623 -118.26268 2432 ft 190 kts 262°
2026-04-20 05:14 33.96466 -118.27827 2175 ft 187 kts 262°
2026-04-20 05:14 33.96318 -118.29286 1941 ft 165 kts 262°
2026-04-20 05:14 33.96186 -118.30596 1728 ft 152 kts 262°
2026-04-20 05:15 33.96060 -118.31836 1526 ft 147 kts 262°
2026-04-20 05:15 33.95937 -118.33050 1331 ft 145 kts 262°
2026-04-20 05:15 33.95814 -118.34262 1147 ft 143 kts 262°
2026-04-20 05:15 33.95694 -118.35436 956 ft 141 kts 263°
2026-04-20 05:16 33.95576 -118.36600 770 ft 139 kts 262°
2026-04-20 05:16 33.95458 -118.37757 582 ft 139 kts 262°
2026-04-20 05:16 33.95340 -118.38915 371 ft 137 kts 263°
2026-04-20 05:16 33.95227 -118.40026 177 ft 136 kts 262°
2026-04-20 05:17 33.95113 -118.41136 96 ft 124 kts 262°
2026-04-20 05:17 33.95044 -118.41824 96 ft 50 kts 262°
2026-04-20 05:17 33.95021 -118.42000 93 ft 22 kts 259°
2026-04-20 05:17 33.94985 -118.42126 94 ft 1 kts 236°
2026-04-20 05:18 33.94925 -118.42211 94 ft 14 kts 224°
2026-04-20 05:18 33.94891 -118.42247 95 ft 0 kts 218°
2026-04-20 05:18 33.94868 -118.42265 96 ft 10 kts 206°
2026-04-20 05:19 33.94806 -118.42282 97 ft 9 kts 185°
2026-04-20 05:19 33.94748 -118.42279 97 ft 9 kts 173°
2026-04-20 05:19 33.94701 -118.42241 94 ft 7 kts 122°
2026-04-20 05:19 33.94689 -118.42182 95 ft 9 kts 84°
2026-04-20 05:20 33.94697 -118.42099 94 ft 7 kts 83°
2026-04-20 05:20 33.94704 -118.42029 95 ft 10 kts 83°
2026-04-20 05:20 33.94710 -118.41973 93 ft 12 kts 83°
2026-04-20 05:20 33.94720 -118.41852 93 ft 12 kts 84°
2026-04-20 05:21 33.94727 -118.41781 93 ft 14 kts 82°
2026-04-20 05:21 33.94744 -118.41620 94 ft 10 kts 83°
2026-04-20 05:21 33.94750 -118.41560 94 ft 12 kts 83°
2026-04-20 05:21 33.94762 -118.41453 97 ft 15 kts 80°
2026-04-20 05:22 33.94774 -118.41397 96 ft 5 kts 75°
2026-04-20 05:22 33.94788 -118.41323 95 ft 11 kts 79°
2026-04-20 05:22 33.94800 -118.41222 94 ft 11 kts 84°
2026-04-20 05:22 33.94808 -118.41133 96 ft 10 kts 83°
2026-04-20 05:23 33.94815 -118.41060 97 ft 8 kts 83°
2026-04-20 05:23 33.94821 -118.40996 95 ft 7 kts 83°
2026-04-20 05:23 33.94828 -118.40932 96 ft 8 kts 83°
2026-04-20 05:23 33.94833 -118.40876 95 ft 6 kts 83°
2026-04-20 05:24 33.94840 -118.40814 95 ft 11 kts 83°
2026-04-20 05:24 33.94851 -118.40707 94 ft 13 kts 82°
2026-04-20 05:24 33.94857 -118.40659 94 ft 5 kts 83°
2026-04-20 05:24 33.94842 -118.40613 96 ft 5 kts 137°
2026-04-20 05:25 33.94823 -118.40602 94 ft 0 kts 158°
2026-04-20 05:25 33.94814 -118.40597 97 ft 7 kts 156°
2026-04-20 05:25 33.94779 -118.40568 94 ft 1 kts 138°